Time,TemperatureF,DewpointF,PressureIn,WindDirection,WindDirectionDegrees,WindSpeedMPH,WindSpeedGustMPH,Humidity,HourlyPrecipIn,Conditions,Clouds,dailyrainin,SoftwareType,DateUTC
2013-03-07 00:00:00,35.8,28.9,29.20,ENE,71,1.0,6.0,76,0.00,,,0.02,meteohub,2013-03-07 05:00:00,
2013-03-07 00:05:00,35.6,28.8,28.40,ENE,74,2.0,2.0,76,0.00,,---,0.02,VWS V14.01,2013-03-07 05:05:00,
2013-03-07 00:10:00,35.6,28.8,29.20,NNW,340,1.0,5.0,76,0.00,,,0.00,meteohub,2013-03-07 05:10:00,
2013-03-07 00:11:00,35.6,28.8,28.40,NE,49,0.9,0.9,76,0.00,,---,0.00,VWS V14.01,2013-03-07 05:11:00,
2013-03-07 00:16:00,35.6,28.8,28.40,NE,53,2.0,2.0,76,0.00,,---,0.00,VWS V14.01,2013-03-07 05:16:00,
2013-03-07 00:21:00,35.6,28.8,28.41,ENE,71,0.9,2.0,76,0.00,,---,0.00,VWS V14.01,2013-03-07 05:21:00,
2013-03-07 00:26:00,35.4,28.6,28.41,ENE,71,0.9,0.9,76,0.00,,---,0.00,VWS V14.01,2013-03-07 05:26:00,
2013-03-07 00:31:00,35.4,28.3,28.41,NW,311,0.9,0.9,75,0.00,,---,0.00,VWS V14.01,2013-03-07 05:31:00,
2013-03-07 00:36:00,35.4,28.3,28.41,ENE,72,2.0,2.0,75,0.00,,---,0.00,VWS V14.01,2013-03-07 05:36:00,
2013-03-07 00:37:00,35.4,28.3,28.41,East,80,2.0,2.0,75,0.00,,---,0.00,VWS V14.01,2013-03-07 05:37:00,
2013-03-07 00:41:00,35.4,28.3,28.41,NNE,33,2.0,2.0,75,0.00,,---,0.00,VWS V14.01,2013-03-07 05:41:00,
2013-03-07 00:42:00,35.4,28.0,28.41,NE,56,2.0,2.0,74,0.00,,---,0.00,VWS V14.01,2013-03-07 05:42:00,
2013-03-07 00:46:00,35.4,28.0,28.41,ENE,60,2.0,2.0,74,0.00,,---,0.00,VWS V14.01,2013-03-07 05:46:00,
2013-03-07 00:47:00,35.4,28.0,28.42,ENE,60,2.0,2.0,74,0.00,,---,0.00,VWS V14.01,2013-03-07 05:47:00,
2013-03-07 00:51:00,35.4,28.0,28.42,ENE,58,2.0,2.0,74,0.00,,---,0.00,VWS V14.01,2013-03-07 05:51:00,
2013-03-07 00:54:00,35.4,28.0,28.41,NE,54,2.0,2.0,74,0.00,,---,0.00,VWS V14.01,2013-03-07 05:54:00,
2013-03-07 00:56:00,35.4,28.0,28.41,ENE,61,2.0,2.0,74,0.00,,---,0.00,VWS V14.01,2013-03-07 05:56:00,
2013-03-07 00:59:00,35.4,28.0,28.42,ENE,63,2.0,2.0,74,0.00,,---,0.00,VWS V14.01,2013-03-07 05:59:00,
2013-03-07 01:02:00,35.2,27.8,28.41,NE,55,2.0,2.0,74,0.00,,---,0.00,VWS V14.01,2013-03-07 06:02:00,
2013-03-07 01:04:00,35.2,27.8,28.41,NE,52,2.0,2.0,74,0.00,,---,0.00,VWS V14.01,2013-03-07 06:04:00,
2013-03-07 01:08:00,35.2,27.8,28.42,NNE,29,2.0,2.0,74,0.00,,---,0.00,VWS V14.01,2013-03-07 06:08:00,
2013-03-07 01:09:00,35.2,27.8,28.42,NE,42,2.0,2.0,74,0.00,,---,0.00,VWS V14.01,2013-03-07 06:09:00,
2013-03-07 01:13:00,35.2,27.8,28.42,East,84,2.9,2.9,74,0.00,,---,0.00,VWS V14.01,2013-03-07 06:13:00,
2013-03-07 01:14:00,35.4,28.0,28.42,SE,128,2.9,2.9,74,0.00,,---,0.00,VWS V14.01,2013-03-07 06:14:00,
2013-03-07 01:18:00,35.4,28.0,28.42,ENE,70,2.9,2.9,74,0.00,,---,0.00,VWS V14.01,2013-03-07 06:18:00,
2013-03-07 01:19:00,35.4,28.0,28.42,ENE,70,2.9,2.9,74,0.00,,---,0.00,VWS V14.01,2013-03-07 06:19:00,
2013-03-07 01:21:00,35.4,28.0,28.42,NNE,29,2.0,2.0,74,0.00,,---,0.00,VWS V14.01,2013-03-07 06:21:00,
2013-03-07 01:23:00,35.4,28.0,28.43,NNE,25,2.0,2.0,74,0.00,,---,0.00,VWS V14.01,2013-03-07 06:23:00,
2013-03-07 01:24:00,35.4,28.0,28.43,North,10,2.0,2.0,74,0.00,,---,0.00,VWS V14.01,2013-03-07 06:24:00,
2013-03-07 01:26:00,35.2,27.8,28.43,NE,38,2.0,2.0,74,0.00,,---,0.00,VWS V14.01,2013-03-07 06:26:00,
2013-03-07 01:28:00,35.2,27.4,28.43,East,96,2.0,2.0,73,0.00,,---,0.00,VWS V14.01,2013-03-07 06:28:00,
2013-03-07 01:29:00,35.2,27.4,28.43,NE,40,2.0,2.0,73,0.00,,---,0.00,VWS V14.01,2013-03-07 06:29:00,
2013-03-07 01:32:00,35.2,27.4,28.43,NE,40,2.0,2.0,73,0.00,,---,0.00,VWS V14.01,2013-03-07 06:32:00,
2013-03-07 01:33:00,35.2,27.4,28.43,NE,49,2.0,2.0,73,0.00,,---,0.00,VWS V14.01,2013-03-07 06:33:00,
2013-03-07 01:36:00,35.2,27.4,28.43,NNW,327,0.9,0.9,73,0.00,,---,0.00,VWS V14.01,2013-03-07 06:36:00,
2013-03-07 01:37:00,35.2,27.8,28.43,NNW,327,0.9,0.9,74,0.00,,---,0.00,VWS V14.01,2013-03-07 06:37:00,
2013-03-07 01:38:00,35.2,27.8,28.43,ENE,70,0.9,0.9,74,0.00,,---,0.00,VWS V14.01,2013-03-07 06:38:00,
2013-03-07 01:41:00,35.2,27.8,28.43,NNW,345,0.9,0.9,74,0.00,,---,0.00,VWS V14.01,2013-03-07 06:41:00,
2013-03-07 01:42:00,35.1,27.3,28.43,East,80,0.9,0.9,73,0.00,,---,0.00,VWS V14.01,2013-03-07 06:42:00,
2013-03-07 01:43:00,35.1,27.3,28.43,East,93,2.0,2.0,73,0.00,,---,0.00,VWS V14.01,2013-03-07 06:43:00,
2013-03-07 01:46:00,35.1,27.3,28.43,East,83,2.0,2.0,73,0.00,,---,0.00,VWS V14.01,2013-03-07 06:46:00,
2013-03-07 01:49:00,35.1,27.3,28.43,ENE,59,2.9,2.9,73,0.00,,---,0.00,VWS V14.01,2013-03-07 06:49:00,
2013-03-07 01:51:00,35.1,27.3,28.43,ENE,59,2.9,2.9,73,0.00,,---,0.00,VWS V14.01,2013-03-07 06:51:00,
2013-03-07 01:54:00,35.1,27.3,28.43,NNE,26,2.0,2.9,73,0.00,,---,0.00,VWS V14.01,2013-03-07 06:54:00,
2013-03-07 01:55:00,35.1,27.3,28.43,NNE,26,2.0,2.9,73,0.00,,---,0.00,VWS V14.01,2013-03-07 06:55:00,
2013-03-07 01:56:00,35.1,27.3,28.43,NNE,23,2.0,2.9,73,0.00,,---,0.00,VWS V14.01,2013-03-07 06:56:00,
2013-03-07 01:59:00,35.1,27.3,28.43,NE,34,0.9,2.9,73,0.00,,---,0.00,VWS V14.01,2013-03-07 06:59:00,
2013-03-07 02:00:00,35.1,27.3,28.43,NE,34,0.9,2.9,73,0.00,,---,0.00,VWS V14.01,2013-03-07 07:00:00,
2013-03-07 02:01:00,35.1,27.3,28.43,NE,34,0.9,0.9,73,0.00,,---,0.00,VWS V14.01,2013-03-07 07:01:00,
2013-03-07 02:04:00,34.9,27.1,28.43,East,98,0.9,0.9,73,0.00,,---,0.00,VWS V14.01,2013-03-07 07:04:00,
2013-03-07 02:05:00,34.9,27.1,28.43,East,98,0.9,0.9,73,0.00,,---,0.00,VWS V14.01,2013-03-07 07:05:00,
2013-03-07 02:06:00,34.9,27.1,28.43,North,5,0.9,0.9,73,0.00,,---,0.00,VWS V14.01,2013-03-07 07:06:00,
2013-03-07 02:10:00,34.7,27.0,28.43,NE,34,2.0,2.0,73,0.00,,---,0.00,VWS V14.01,2013-03-07 07:10:00,
2013-03-07 02:11:00,34.7,27.0,28.43,ESE,123,2.0,2.0,73,0.00,,---,0.00,VWS V14.01,2013-03-07 07:11:00,
2013-03-07 02:12:00,34.7,27.0,28.43,NNE,23,2.0,2.0,73,0.00,,---,0.00,VWS V14.01,2013-03-07 07:12:00,
2013-03-07 02:15:00,34.7,27.0,28.43,NNE,18,2.9,2.9,73,0.00,,---,0.00,VWS V14.01,2013-03-07 07:15:00,
2013-03-07 02:18:00,34.5,26.8,28.43,ESE,111,2.9,2.9,73,0.00,,---,0.00,VWS V14.01,2013-03-07 07:18:00,
2013-03-07 02:20:00,34.5,26.8,28.43,ESE,119,2.9,2.9,73,0.00,,---,0.00,VWS V14.01,2013-03-07 07:20:00,
2013-03-07 02:23:00,34.3,26.9,28.43,NNE,28,2.0,2.9,74,0.00,,---,0.00,VWS V14.01,2013-03-07 07:23:00,
2013-03-07 02:25:00,34.3,26.6,28.43,ENE,57,2.0,2.9,73,0.00,,---,0.00,VWS V14.01,2013-03-07 07:25:00,
2013-03-07 02:27:00,34.3,26.6,29.23,NNE,25,4.0,12.0,73,0.00,,,0.00,meteohub,2013-03-07 07:27:00,
2013-03-07 02:28:00,34.3,26.6,28.43,NNE,26,0.9,2.9,73,0.00,,---,0.00,VWS V14.01,2013-03-07 07:28:00,
2013-03-07 02:31:00,34.3,26.6,28.43,NE,43,2.0,2.0,73,0.00,,---,0.00,VWS V14.01,2013-03-07 07:31:00,
2013-03-07 02:32:00,34.3,26.6,28.43,NE,43,2.0,2.0,73,0.00,,---,0.00,VWS V14.01,2013-03-07 07:32:00,
2013-03-07 02:33:00,34.3,26.9,28.43,NE,42,2.0,2.0,74,0.00,,---,0.00,VWS V14.01,2013-03-07 07:33:00,
2013-03-07 02:36:00,34.3,26.9,28.43,NNE,21,2.0,2.0,74,0.00,,---,0.00,VWS V14.01,2013-03-07 07:36:00,
2013-03-07 02:37:00,34.3,26.9,28.43,NNE,21,2.0,2.0,74,0.00,,---,0.00,VWS V14.01,2013-03-07 07:37:00,
2013-03-07 02:38:00,34.3,26.9,28.43,NNE,21,0.9,2.0,74,0.00,,---,0.00,VWS V14.01,2013-03-07 07:38:00,
2013-03-07 02:42:00,34.2,26.8,28.43,East,87,2.0,2.0,74,0.00,,---,0.00,VWS V14.01,2013-03-07 07:42:00,
2013-03-07 02:43:00,34.2,26.8,28.43,East,80,2.0,2.0,74,0.00,,---,0.00,VWS V14.01,2013-03-07 07:43:00,
2013-03-07 02:47:00,34.0,26.6,28.43,ENE,65,0.9,2.0,74,0.00,,---,0.00,VWS V14.01,2013-03-07 07:47:00,
2013-03-07 02:48:00,34.0,26.6,28.43,North,5,2.0,2.0,74,0.00,,---,0.00,VWS V14.01,2013-03-07 07:48:00,
2013-03-07 02:52:00,34.0,26.6,28.43,ESE,103,0.9,2.0,74,0.00,,---,0.00,VWS V14.01,2013-03-07 07:52:00,
2013-03-07 02:53:00,34.0,26.6,28.43,ESE,103,0.9,2.0,74,0.00,,---,0.00,VWS V14.01,2013-03-07 07:53:00,
2013-03-07 02:57:00,33.8,26.4,28.43,NE,44,0.9,2.0,74,0.00,,---,0.00,VWS V14.01,2013-03-07 07:57:00,
2013-03-07 02:59:00,33.8,26.4,28.43,NE,55,0.9,0.9,74,0.00,,---,0.00,VWS V14.01,2013-03-07 07:59:00,
2013-03-07 03:02:00,33.8,26.4,28.43,NNE,26,0.9,0.9,74,0.00,,---,0.00,VWS V14.01,2013-03-07 08:02:00,
2013-03-07 03:03:00,33.8,26.4,29.23,NE,44,1.0,8.0,74,0.00,,,0.00,meteohub,2013-03-07 08:03:00,
2013-03-07 03:04:00,33.6,26.2,28.43,NE,44,0.9,0.9,74,0.00,,---,0.00,VWS V14.01,2013-03-07 08:04:00,
2013-03-07 03:07:00,33.6,26.2,28.43,NE,44,0.9,0.9,74,0.00,,---,0.00,VWS V14.01,2013-03-07 08:07:00,
2013-03-07 03:10:00,33.6,26.2,28.43,East,84,0.9,0.9,74,0.00,,---,0.00,VWS V14.01,2013-03-07 08:10:00,
2013-03-07 03:14:00,33.6,26.2,28.43,East,89,0.9,0.9,74,0.00,,---,0.00,VWS V14.01,2013-03-07 08:14:00,
2013-03-07 03:15:00,33.6,26.2,28.43,North,9,0.9,0.9,74,0.00,,---,0.00,VWS V14.01,2013-03-07 08:15:00,
2013-03-07 03:19:00,33.6,26.2,28.43,SE,132,2.0,2.0,74,0.00,,---,0.00,VWS V14.01,2013-03-07 08:19:00,
2013-03-07 03:20:00,33.6,26.2,28.43,SE,132,2.0,2.0,74,0.00,,---,0.00,VWS V14.01,2013-03-07 08:20:00,
2013-03-07 03:24:00,33.6,26.2,28.43,SE,132,0.9,2.0,74,0.00,,---,0.00,VWS V14.01,2013-03-07 08:24:00,
2013-03-07 03:28:00,33.6,26.2,28.43,NNE,32,0.9,0.9,74,0.00,,---,0.00,VWS V14.01,2013-03-07 08:28:00,
2013-03-07 03:29:00,33.6,26.2,28.43,East,98,0.9,0.9,74,0.00,,---,0.00,VWS V14.01,2013-03-07 08:29:00,
2013-03-07 03:33:00,33.6,26.2,28.43,East,98,0.9,0.9,74,0.00,,---,0.00,VWS V14.01,2013-03-07 08:33:00,
2013-03-07 03:34:00,33.6,26.2,28.43,NW,320,0.9,0.9,74,0.00,,---,0.00,VWS V14.01,2013-03-07 08:34:00,
2013-03-07 03:38:00,33.6,26.2,28.43,SE,145,0.9,0.9,74,0.00,,---,0.00,VWS V14.01,2013-03-07 08:38:00,
2013-03-07 03:39:00,33.4,26.0,28.44,SE,145,0.9,0.9,74,0.00,,---,0.00,VWS V14.01,2013-03-07 08:39:00,
2013-03-07 03:43:00,33.4,26.0,28.43,North,11,0.9,0.9,74,0.00,,---,0.00,VWS V14.01,2013-03-07 08:43:00,
2013-03-07 03:44:00,33.4,26.0,28.43,North,11,0.9,0.9,74,0.00,,---,0.00,VWS V14.01,2013-03-07 08:44:00,
2013-03-07 03:48:00,33.4,26.0,28.44,ENE,59,0.9,0.9,74,0.00,,---,0.00,VWS V14.01,2013-03-07 08:48:00,
2013-03-07 03:49:00,33.4,26.0,28.44,ENE,59,0.9,0.9,74,0.00,,---,0.00,VWS V14.01,2013-03-07 08:49:00,
2013-03-07 03:55:00,33.3,25.9,29.24,North,0,0.0,6.0,74,0.00,,,0.00,meteohub,2013-03-07 08:55:00,
2013-03-07 03:56:00,33.3,25.9,28.44,NNW,333,0.9,0.9,74,0.00,,---,0.00,VWS V14.01,2013-03-07 08:56:00,
2013-03-07 04:01:00,33.3,25.9,28.44,North,350,0.9,0.9,74,0.00,,---,0.00,VWS V14.01,2013-03-07 09:01:00,
2013-03-07 04:06:00,33.1,25.7,28.44,NNW,344,0.9,0.9,74,0.00,,---,0.00,VWS V14.01,2013-03-07 09:06:00,
2013-03-07 04:11:00,33.1,26.0,28.44,NNW,344,0.9,0.9,75,0.00,,---,0.00,VWS V14.01,2013-03-07 09:11:00,
2013-03-07 04:16:00,33.1,26.0,28.44,NNW,347,0.0,0.9,75,0.00,,---,0.00,VWS V14.01,2013-03-07 09:16:00,
2013-03-07 04:21:00,32.9,25.9,28.44,ESE,103,0.9,0.9,75,0.00,,---,0.00,VWS V14.01,2013-03-07 09:21:00,
2013-03-07 04:26:00,32.7,25.7,28.44,ESE,103,0.9,0.9,75,0.00,,---,0.00,VWS V14.01,2013-03-07 09:26:00,
2013-03-07 04:31:00,32.7,25.7,28.44,ESE,103,0.0,0.0,75,0.00,,---,0.00,VWS V14.01,2013-03-07 09:31:00,
2013-03-07 04:36:00,32.5,25.8,28.44,ESE,103,0.0,0.0,76,0.00,,---,0.00,VWS V14.01,2013-03-07 09:36:00,
2013-03-07 04:41:00,32.5,25.8,28.44,NNW,329,0.0,0.0,76,0.00,,---,0.00,VWS V14.01,2013-03-07 09:41:00,
2013-03-07 04:42:00,32.4,25.7,28.44,NNW,329,0.0,0.0,76,0.00,,---,0.00,VWS V14.01,2013-03-07 09:42:00,
2013-03-07 04:46:00,32.4,25.7,28.44,NNW,329,0.0,0.0,76,0.00,,---,0.00,VWS V14.01,2013-03-07 09:46:00,
2013-03-07 04:47:00,32.4,25.7,28.44,NNW,329,0.0,0.0,76,0.00,,---,0.00,VWS V14.01,2013-03-07 09:47:00,
2013-03-07 04:51:00,32.2,25.8,28.44,NNW,329,0.0,0.0,77,0.00,,---,0.00,VWS V14.01,2013-03-07 09:51:00,
2013-03-07 04:52:00,32.2,25.8,28.44,NNW,329,0.0,0.0,77,0.00,,---,0.00,VWS V14.01,2013-03-07 09:52:00,
2013-03-07 04:56:00,32.2,25.8,28.44,NNW,329,0.0,0.0,77,0.00,,---,0.00,VWS V14.01,2013-03-07 09:56:00,
2013-03-07 04:57:00,32.2,25.8,28.45,NNW,329,0.0,0.0,77,0.00,,---,0.00,VWS V14.01,2013-03-07 09:57:00,
2013-03-07 05:01:00,32.2,25.8,28.45,NE,53,0.0,0.9,77,0.00,,---,0.00,VWS V14.01,2013-03-07 10:01:00,
2013-03-07 05:02:00,32.0,25.7,29.24,NE,53,0.0,4.0,77,0.00,,,0.00,meteohub,2013-03-07 10:02:00,
2013-03-07 05:04:00,32.0,25.6,28.45,NE,53,0.0,0.0,77,0.00,,---,0.00,VWS V14.01,2013-03-07 10:04:00,
2013-03-07 05:06:00,32.0,25.6,28.45,NE,53,0.0,0.0,77,0.00,,---,0.00,VWS V14.01,2013-03-07 10:06:00,
2013-03-07 05:09:00,31.8,25.4,28.45,NNE,16,0.0,0.0,77,0.00,,---,0.00,VWS V14.01,2013-03-07 10:09:00,
2013-03-07 05:11:00,31.8,25.4,28.45,NNE,16,0.0,0.0,77,0.00,,---,0.00,VWS V14.01,2013-03-07 10:11:00,
2013-03-07 05:14:00,32.0,25.7,29.25,North,0,0.0,4.0,77,0.00,,,0.00,meteohub,2013-03-07 10:14:00,
2013-03-07 05:18:00,32.0,25.6,28.45,WNW,285,0.9,0.9,77,0.00,,---,0.00,VWS V14.01,2013-03-07 10:18:00,
2013-03-07 05:19:00,32.0,25.6,28.45,WNW,285,0.9,0.9,77,0.00,,---,0.00,VWS V14.01,2013-03-07 10:19:00,
2013-03-07 05:23:00,32.0,25.6,28.45,WNW,285,0.9,0.9,77,0.00,,---,0.00,VWS V14.01,2013-03-07 10:23:00,
2013-03-07 05:24:00,32.0,25.6,28.45,WNW,285,0.0,0.9,77,0.00,,---,0.00,VWS V14.01,2013-03-07 10:24:00,
2013-03-07 05:28:00,32.0,25.6,28.45,NNE,27,0.0,0.9,77,0.00,,---,0.00,VWS V14.01,2013-03-07 10:28:00,
2013-03-07 05:31:00,31.8,25.4,28.45,NNE,22,0.0,0.0,77,0.00,,---,0.00,VWS V14.01,2013-03-07 10:31:00,
2013-03-07 05:33:00,31.8,25.7,28.46,NNE,17,0.9,0.9,78,0.00,,---,0.00,VWS V14.01,2013-03-07 10:33:00,
2013-03-07 05:36:00,31.8,25.7,28.46,North,350,0.9,0.9,78,0.00,,---,0.00,VWS V14.01,2013-03-07 10:36:00,
2013-03-07 05:38:00,31.8,25.7,28.46,NNE,13,0.9,0.9,78,0.00,,---,0.00,VWS V14.01,2013-03-07 10:38:00,
2013-03-07 05:41:00,31.8,25.7,28.46,NE,39,0.9,0.9,78,0.00,,---,0.00,VWS V14.01,2013-03-07 10:41:00,
2013-03-07 05:43:00,31.8,25.7,28.46,NE,39,0.0,0.9,78,0.00,,---,0.00,VWS V14.01,2013-03-07 10:43:00,
2013-03-07 05:46:00,31.8,25.7,28.45,ENE,75,0.0,0.0,78,0.00,,---,0.00,VWS V14.01,2013-03-07 10:46:00,
2013-03-07 05:48:00,31.8,25.7,28.45,ENE,75,0.0,0.0,78,0.00,,---,0.00,VWS V14.01,2013-03-07 10:48:00,
2013-03-07 05:51:00,31.8,25.7,28.46,ENE,75,0.0,0.0,78,0.00,,---,0.00,VWS V14.01,2013-03-07 10:51:00,
2013-03-07 05:52:00,31.8,25.7,28.46,ENE,75,0.0,0.0,78,0.00,,---,0.00,VWS V14.01,2013-03-07 10:52:00,
2013-03-07 05:53:00,31.6,25.5,28.46,ENE,75,0.0,0.0,78,0.00,,---,0.00,VWS V14.01,2013-03-07 10:53:00,
2013-03-07 05:56:00,31.6,25.5,28.46,NE,38,0.0,0.0,78,0.00,,---,0.00,VWS V14.01,2013-03-07 10:56:00,
2013-03-07 05:57:00,31.6,25.5,28.46,NE,38,0.0,0.0,78,0.00,,---,0.00,VWS V14.01,2013-03-07 10:57:00,
2013-03-07 05:58:00,31.6,25.5,28.46,North,355,0.0,0.0,78,0.00,,---,0.00,VWS V14.01,2013-03-07 10:58:00,
2013-03-07 06:02:00,31.6,25.5,28.46,ENE,78,0.9,0.9,78,0.00,,---,0.00,VWS V14.01,2013-03-07 11:02:00,
2013-03-07 06:03:00,31.6,25.5,28.46,ENE,78,0.9,0.9,78,0.00,,---,0.00,VWS V14.01,2013-03-07 11:03:00,
2013-03-07 06:07:00,31.6,25.5,28.46,ENE,78,0.9,0.9,78,0.00,,---,0.00,VWS V14.01,2013-03-07 11:07:00,
2013-03-07 06:08:00,31.6,25.5,28.46,ENE,78,0.9,0.9,78,0.00,,---,0.00,VWS V14.01,2013-03-07 11:08:00,
2013-03-07 06:11:00,31.6,25.5,28.46,ENE,78,0.9,0.9,78,0.00,,---,0.00,VWS V14.01,2013-03-07 11:11:00,
2013-03-07 06:12:00,31.6,25.5,28.46,ENE,78,0.9,0.9,78,0.00,,---,0.00,VWS V14.01,2013-03-07 11:12:00,
2013-03-07 06:13:00,31.6,25.5,28.46,ENE,78,0.0,0.9,78,0.00,,---,0.00,VWS V14.01,2013-03-07 11:13:00,
2013-03-07 06:17:00,31.6,25.5,28.46,ENE,78,0.9,0.9,78,0.00,,---,0.00,VWS V14.01,2013-03-07 11:17:00,
2013-03-07 06:18:00,31.6,25.5,28.46,ENE,78,0.9,0.9,78,0.00,,---,0.00,VWS V14.01,2013-03-07 11:18:00,
2013-03-07 06:22:00,31.6,25.5,28.46,ENE,78,0.0,0.9,78,0.00,,---,0.00,VWS V14.01,2013-03-07 11:22:00,
2013-03-07 06:24:00,31.6,25.5,29.26,ENE,78,0.0,3.0,78,0.00,,,0.00,meteohub,2013-03-07 11:24:00,
2013-03-07 06:25:00,31.6,25.5,28.46,ENE,78,0.0,0.0,78,0.00,,---,0.00,VWS V14.01,2013-03-07 11:25:00,
2013-03-07 06:27:00,31.6,25.5,28.46,ENE,78,0.0,0.0,78,0.00,,---,0.00,VWS V14.01,2013-03-07 11:27:00,
2013-03-07 06:30:00,31.6,25.5,28.46,ENE,78,0.0,0.0,78,0.00,,---,0.00,VWS V14.01,2013-03-07 11:30:00,
2013-03-07 06:32:00,31.6,25.5,28.46,ENE,78,0.0,0.0,78,0.00,,---,0.00,VWS V14.01,2013-03-07 11:32:00,
2013-03-07 06:35:00,31.6,25.5,28.46,ENE,78,0.0,0.0,78,0.00,,---,0.00,VWS V14.01,2013-03-07 11:35:00,
2013-03-07 06:39:00,31.5,25.4,28.46,ENE,78,0.0,0.0,78,0.00,,---,0.00,VWS V14.01,2013-03-07 11:39:00,
2013-03-07 06:40:00,31.5,25.4,28.46,ENE,78,0.0,0.0,78,0.00,,---,0.00,VWS V14.01,2013-03-07 11:40:00,
2013-03-07 06:44:00,31.5,25.4,28.46,ENE,78,0.0,0.0,78,0.00,,---,0.00,VWS V14.01,2013-03-07 11:44:00,
2013-03-07 06:45:00,31.5,25.4,28.46,ENE,78,0.0,0.0,78,0.00,,---,0.00,VWS V14.01,2013-03-07 11:45:00,
2013-03-07 06:49:00,31.5,25.4,28.46,ENE,78,0.0,0.0,78,0.00,,---,0.00,VWS V14.01,2013-03-07 11:49:00,
2013-03-07 06:50:00,31.5,25.4,28.46,ENE,78,0.0,0.0,78,0.00,,---,0.00,VWS V14.01,2013-03-07 11:50:00,
2013-03-07 06:54:00,31.3,25.6,28.46,ENE,78,0.0,0.0,79,0.00,,---,0.00,VWS V14.01,2013-03-07 11:54:00,
2013-03-07 06:55:00,31.3,25.6,28.47,ENE,78,0.0,0.0,79,0.00,,---,0.00,VWS V14.01,2013-03-07 11:55:00,
2013-03-07 06:59:00,31.3,25.6,28.47,ENE,78,0.0,0.0,79,0.00,,---,0.00,VWS V14.01,2013-03-07 11:59:00,
2013-03-07 07:00:00,31.3,25.6,28.47,ENE,78,0.0,0.0,79,0.00,,---,0.00,VWS V14.01,2013-03-07 12:00:00,
2013-03-07 07:04:00,31.3,25.6,28.47,ENE,78,0.0,0.0,79,0.00,,---,0.00,VWS V14.01,2013-03-07 12:04:00,
2013-03-07 07:07:00,31.3,25.6,28.47,ENE,78,0.0,0.0,79,0.00,,---,0.00,VWS V14.01,2013-03-07 12:07:00,
2013-03-07 07:09:00,31.3,25.6,28.47,ENE,78,0.0,0.0,79,0.00,,---,0.00,VWS V14.01,2013-03-07 12:09:00,
2013-03-07 07:10:00,31.3,25.6,28.47,ENE,78,0.0,0.0,79,0.00,,---,0.00,VWS V14.01,2013-03-07 12:10:00,
2013-03-07 07:12:00,31.3,25.6,28.47,ENE,78,0.9,0.9,79,0.00,,---,0.00,VWS V14.01,2013-03-07 12:12:00,
2013-03-07 07:14:00,31.5,25.8,28.47,ENE,78,0.9,0.9,79,0.00,,---,0.00,VWS V14.01,2013-03-07 12:14:00,
2013-03-07 07:15:00,31.5,25.8,28.47,ENE,78,0.0,0.9,79,0.00,,---,0.00,VWS V14.01,2013-03-07 12:15:00,
2013-03-07 07:17:00,31.5,25.8,28.47,ENE,78,0.0,0.9,79,0.00,,---,0.00,VWS V14.01,2013-03-07 12:17:00,
2013-03-07 07:21:00,31.6,25.9,28.47,NNE,16,0.9,0.9,79,0.00,,---,0.00,VWS V14.01,2013-03-07 12:21:00,
2013-03-07 07:22:00,31.6,25.9,28.47,NNE,16,0.0,0.9,79,0.00,,---,0.00,VWS V14.01,2013-03-07 12:22:00,
2013-03-07 07:26:00,32.0,26.2,28.48,NNE,24,0.9,0.9,79,0.00,,---,0.00,VWS V14.01,2013-03-07 12:26:00,
2013-03-07 07:27:00,32.0,26.2,28.48,NNE,24,0.9,0.9,79,0.00,,---,0.00,VWS V14.01,2013-03-07 12:27:00,
2013-03-07 07:31:00,32.4,26.3,28.48,North,9,2.0,2.0,78,0.00,,---,0.00,VWS V14.01,2013-03-07 12:31:00,
2013-03-07 07:32:00,32.5,26.4,28.48,North,9,2.0,2.0,78,0.00,,---,0.00,VWS V14.01,2013-03-07 12:32:00,
2013-03-07 07:36:00,32.7,26.6,28.48,SE,130,0.9,2.0,78,0.00,,---,0.00,VWS V14.01,2013-03-07 12:36:00,
2013-03-07 07:37:00,32.7,26.3,28.48,SE,130,0.9,2.0,77,0.00,,---,0.00,VWS V14.01,2013-03-07 12:37:00,
2013-03-07 07:41:00,33.1,26.7,28.48,North,9,0.9,2.0,77,0.00,,---,0.00,VWS V14.01,2013-03-07 12:41:00,
2013-03-07 07:42:00,33.1,26.7,28.48,NNE,12,0.9,2.0,77,0.00,,---,0.00,VWS V14.01,2013-03-07 12:42:00,
2013-03-07 07:46:00,33.4,27.0,28.48,North,355,0.9,0.9,77,0.00,,---,0.00,VWS V14.01,2013-03-07 12:46:00,
2013-03-07 07:47:00,33.4,26.7,28.48,ENE,67,0.9,0.9,76,0.00,,---,0.00,VWS V14.01,2013-03-07 12:47:00,
2013-03-07 07:51:00,33.6,26.9,28.48,ENE,67,0.9,0.9,76,0.00,,---,0.00,VWS V14.01,2013-03-07 12:51:00,
2013-03-07 07:52:00,33.8,27.0,28.48,ENE,67,0.9,0.9,76,0.00,,---,0.00,VWS V14.01,2013-03-07 12:52:00,
2013-03-07 07:56:00,34.0,27.2,28.48,NNW,328,0.9,0.9,76,0.00,,---,0.00,VWS V14.01,2013-03-07 12:56:00,
2013-03-07 07:59:00,34.3,27.2,28.49,NW,307,0.9,0.9,75,0.00,,---,0.00,VWS V14.01,2013-03-07 12:59:00,
2013-03-07 08:01:00,34.3,27.2,28.49,North,355,0.9,0.9,75,0.00,,---,0.00,VWS V14.01,2013-03-07 13:01:00,
2013-03-07 08:04:00,34.9,27.5,28.49,North,355,2.0,2.0,74,0.00,,---,0.00,VWS V14.01,2013-03-07 13:04:00,
2013-03-07 08:06:00,35.1,27.7,28.49,North,355,0.9,2.0,74,0.00,,---,0.00,VWS V14.01,2013-03-07 13:06:00,
2013-03-07 08:09:00,35.4,27.6,28.49,NNW,345,2.0,2.0,73,0.00,,---,0.00,VWS V14.01,2013-03-07 13:09:00,
2013-03-07 08:13:00,35.8,27.3,28.49,North,10,2.9,2.9,71,0.00,,---,0.00,VWS V14.01,2013-03-07 13:13:00,
2013-03-07 08:14:00,35.8,27.3,28.49,NNE,28,2.9,2.9,71,0.00,,---,0.00,VWS V14.01,2013-03-07 13:14:00,
2013-03-07 08:18:00,35.8,27.3,28.50,NNE,15,4.0,4.0,71,0.00,,---,0.00,VWS V14.01,2013-03-07 13:18:00,
2013-03-07 08:19:00,35.8,27.3,28.50,North,11,4.0,4.0,71,0.00,,---,0.00,VWS V14.01,2013-03-07 13:19:00,
2013-03-07 08:23:00,36.0,27.2,28.50,ESE,111,2.9,4.0,70,0.00,,---,0.00,VWS V14.01,2013-03-07 13:23:00,
2013-03-07 08:24:00,36.0,27.2,28.50,NNE,27,2.9,4.0,70,0.00,,---,0.00,VWS V14.01,2013-03-07 13:24:00,
2013-03-07 08:28:00,36.0,27.2,28.50,NE,38,2.0,2.0,70,0.00,,---,0.00,VWS V14.01,2013-03-07 13:28:00,
2013-03-07 08:29:00,36.1,27.3,28.50,NE,40,2.0,2.0,70,0.00,,---,0.00,VWS V14.01,2013-03-07 13:29:00,
2013-03-07 08:33:00,36.1,26.9,28.50,North,0,2.0,2.0,69,0.00,,---,0.00,VWS V14.01,2013-03-07 13:33:00,
2013-03-07 08:34:00,36.1,26.9,28.50,North,0,2.0,2.0,69,0.00,,---,0.00,VWS V14.01,2013-03-07 13:34:00,
2013-03-07 08:37:00,36.1,27.0,29.30,NE,36,5.0,11.0,69,0.00,,,0.00,meteohub,2013-03-07 13:37:00,
2013-03-07 08:38:00,36.1,26.9,28.50,ENE,61,2.0,2.0,69,0.00,,---,0.00,VWS V14.01,2013-03-07 13:38:00,
2013-03-07 08:41:00,36.1,26.9,28.50,NE,42,2.0,2.0,69,0.00,,---,0.00,VWS V14.01,2013-03-07 13:41:00,
2013-03-07 08:43:00,36.1,27.3,28.51,NNW,335,2.0,2.0,70,0.00,,---,0.00,VWS V14.01,2013-03-07 13:43:00,
2013-03-07 08:46:00,36.3,27.5,28.51,ENE,65,2.0,2.0,70,0.00,,---,0.00,VWS V14.01,2013-03-07 13:46:00,
2013-03-07 08:48:00,36.3,27.5,28.51,North,9,2.0,2.0,70,0.00,,---,0.00,VWS V14.01,2013-03-07 13:48:00,
2013-03-07 08:51:00,36.5,27.3,28.51,NNE,21,2.0,2.0,69,0.00,,---,0.00,VWS V14.01,2013-03-07 13:51:00,
2013-03-07 08:53:00,36.7,27.5,29.31,NNE,26,2.0,8.0,69,0.00,,,0.00,meteohub,2013-03-07 13:53:00,
2013-03-07 08:55:00,36.7,27.9,28.51,NE,35,2.0,2.0,70,0.00,,---,0.00,VWS V14.01,2013-03-07 13:55:00,
2013-03-07 08:56:00,36.9,28.0,28.51,NE,35,2.0,2.0,70,0.00,,---,0.00,VWS V14.01,2013-03-07 13:56:00,
2013-03-07 09:00:00,36.9,27.7,28.51,NNE,24,2.0,2.0,69,0.00,,---,0.00,VWS V14.01,2013-03-07 14:00:00,
2013-03-07 09:01:00,36.9,27.7,28.51,NNE,24,2.0,2.0,69,0.00,,---,0.00,VWS V14.01,2013-03-07 14:01:00,
2013-03-07 09:05:00,37.0,27.8,28.51,ENE,66,2.0,2.0,69,0.00,,---,0.00,VWS V14.01,2013-03-07 14:05:00,
2013-03-07 09:06:00,37.0,27.8,28.51,NE,51,2.0,2.0,69,0.00,,---,0.00,VWS V14.01,2013-03-07 14:06:00,
2013-03-07 09:10:00,37.0,27.8,28.51,NE,50,2.0,2.0,69,0.00,,---,0.00,VWS V14.01,2013-03-07 14:10:00,
2013-03-07 09:11:00,37.2,28.3,28.51,NE,50,2.0,2.0,70,0.00,,---,0.00,VWS V14.01,2013-03-07 14:11:00,
2013-03-07 09:15:00,37.4,28.5,28.51,NNE,27,0.9,2.0,70,0.00,,---,0.00,VWS V14.01,2013-03-07 14:15:00,
2013-03-07 09:17:00,37.6,29.1,28.51,NNE,27,0.9,2.0,71,0.00,,---,0.00,VWS V14.01,2013-03-07 14:17:00,
2013-03-07 09:20:00,37.6,28.7,28.51,NNE,25,2.0,2.0,70,0.00,,---,0.00,VWS V14.01,2013-03-07 14:20:00,
2013-03-07 09:22:00,37.6,28.7,28.51,NE,34,2.0,2.0,70,0.00,,---,0.00,VWS V14.01,2013-03-07 14:22:00,
2013-03-07 09:25:00,37.8,28.6,28.51,North,9,2.0,2.0,69,0.00,,---,0.00,VWS V14.01,2013-03-07 14:25:00,
2013-03-07 09:27:00,37.8,28.6,28.51,NE,51,2.0,2.0,69,0.00,,---,0.00,VWS V14.01,2013-03-07 14:27:00,
2013-03-07 09:30:00,37.8,28.6,28.52,NNW,333,2.0,2.0,69,0.00,,---,0.00,VWS V14.01,2013-03-07 14:30:00,
2013-03-07 09:32:00,37.9,28.6,28.51,NE,39,2.9,2.9,69,0.00,,---,0.00,VWS V14.01,2013-03-07 14:32:00,
2013-03-07 09:35:00,37.9,28.6,28.52,NNE,23,2.0,2.9,69,0.00,,---,0.00,VWS V14.01,2013-03-07 14:35:00,
2013-03-07 09:37:00,37.9,28.6,28.52,ENE,66,2.0,2.9,69,0.00,,---,0.00,VWS V14.01,2013-03-07 14:37:00,
2013-03-07 09:40:00,37.9,28.3,28.52,East,80,2.0,2.0,68,0.00,,---,0.00,VWS V14.01,2013-03-07 14:40:00,
2013-03-07 09:42:00,37.9,28.3,28.52,NE,55,2.0,2.0,68,0.00,,---,0.00,VWS V14.01,2013-03-07 14:42:00,
2013-03-07 09:45:00,37.9,28.3,28.52,ENE,65,2.0,2.0,68,0.00,,---,0.00,VWS V14.01,2013-03-07 14:45:00,
2013-03-07 09:47:00,37.9,27.9,28.52,ENE,59,2.0,2.0,67,0.00,,---,0.00,VWS V14.01,2013-03-07 14:47:00,
2013-03-07 09:50:00,37.9,28.3,28.52,NNE,26,2.0,2.0,68,0.00,,---,0.00,VWS V14.01,2013-03-07 14:50:00,
2013-03-07 09:52:00,37.9,28.3,28.52,NE,34,2.0,2.0,68,0.00,,---,0.00,VWS V14.01,2013-03-07 14:52:00,
2013-03-07 09:55:00,37.9,27.9,28.52,NE,40,2.9,2.9,67,0.00,,---,0.00,VWS V14.01,2013-03-07 14:55:00,
2013-03-07 09:56:00,37.9,27.9,28.52,NE,40,2.9,2.9,67,0.00,,---,0.00,VWS V14.01,2013-03-07 14:56:00,
2013-03-07 09:57:00,37.8,27.8,28.52,North,355,2.9,2.9,67,0.00,,---,0.00,VWS V14.01,2013-03-07 14:57:00,
2013-03-07 10:01:00,37.8,28.2,28.52,NNW,348,2.9,2.9,68,0.00,,---,0.00,VWS V14.01,2013-03-07 15:01:00,
2013-03-07 10:02:00,37.8,28.2,28.52,North,5,2.9,2.9,68,0.00,,---,0.00,VWS V14.01,2013-03-07 15:02:00,
2013-03-07 10:07:00,37.9,28.4,29.32,ENE,57,3.0,9.0,68,0.00,,,0.00,meteohub,2013-03-07 15:07:00,
2013-03-07 10:08:00,37.8,27.8,28.53,ENE,57,2.9,2.9,67,0.00,,---,0.00,VWS V14.01,2013-03-07 15:08:00,
2013-03-07 10:13:00,37.9,28.8,29.32,NW,323,0.0,9.0,69,0.00,,,0.00,meteohub,2013-03-07 15:13:00,
2013-03-07 10:14:00,37.9,28.6,28.53,NW,323,2.0,2.9,69,0.00,,---,0.00,VWS V14.01,2013-03-07 15:14:00,
2013-03-07 10:19:00,37.9,27.9,28.53,NNE,29,2.0,2.9,67,0.00,,---,0.00,VWS V14.01,2013-03-07 15:19:00,
2013-03-07 10:24:00,37.9,27.9,28.53,NNW,329,2.9,2.9,67,0.00,,---,0.00,VWS V14.01,2013-03-07 15:24:00,
2013-03-07 10:29:00,37.9,27.9,28.53,ENE,60,4.0,4.0,67,0.00,,---,0.00,VWS V14.01,2013-03-07 15:29:00,
2013-03-07 10:34:00,37.9,28.4,29.32,NE,34,1.0,15.0,68,0.00,,,0.00,meteohub,2013-03-07 15:34:00,
2013-03-07 10:39:00,38.1,28.8,28.53,North,0,2.0,2.9,69,0.00,,---,0.00,VWS V14.01,2013-03-07 15:39:00,
2013-03-07 10:44:00,38.3,28.7,28.53,ENE,64,2.0,2.9,68,0.00,,---,0.00,VWS V14.01,2013-03-07 15:44:00,
2013-03-07 10:49:00,38.5,28.8,29.32,North,5,2.0,9.0,68,0.00,,,0.00,meteohub,2013-03-07 15:49:00,
2013-03-07 10:50:00,38.7,28.7,28.53,NNE,28,2.9,2.9,67,0.00,,---,0.00,VWS V14.01,2013-03-07 15:50:00,
2013-03-07 10:55:00,38.7,28.7,28.53,North,10,4.0,4.0,67,0.00,,---,0.00,VWS V14.01,2013-03-07 15:55:00,
2013-03-07 11:00:00,38.5,28.5,28.53,NNW,336,4.9,4.9,67,0.00,,---,0.00,VWS V14.01,2013-03-07 16:00:00,
2013-03-07 11:05:00,38.5,28.1,28.53,North,11,4.0,4.9,66,0.00,,---,0.00,VWS V14.01,2013-03-07 16:05:00,
2013-03-07 11:06:00,38.5,28.1,28.53,North,11,4.0,4.9,66,0.00,,---,0.00,VWS V14.01,2013-03-07 16:06:00,
2013-03-07 11:10:00,38.5,28.1,28.53,ENE,74,4.9,4.9,66,0.00,,---,0.00,VWS V14.01,2013-03-07 16:10:00,
2013-03-07 11:11:00,38.5,28.1,28.53,ENE,74,4.9,4.9,66,0.00,,---,0.00,VWS V14.01,2013-03-07 16:11:00,
2013-03-07 11:16:00,38.7,28.7,28.53,North,355,4.9,4.9,67,0.00,,---,0.00,VWS V14.01,2013-03-07 16:16:00,
2013-03-07 11:20:00,39.0,29.0,28.53,NW,326,4.9,4.9,67,0.00,,---,0.00,VWS V14.01,2013-03-07 16:20:00,
2013-03-07 11:21:00,39.0,28.9,29.32,NNE,26,2.0,12.0,67,0.00,,,0.00,meteohub,2013-03-07 16:21:00,
2013-03-07 11:26:00,39.6,30.3,28.52,North,355,4.0,4.9,69,0.00,,---,0.00,VWS V14.01,2013-03-07 16:26:00,
2013-03-07 11:32:00,40.3,30.2,29.32,North,355,0.0,12.0,67,0.00,,,0.00,meteohub,2013-03-07 16:32:00,
2013-03-07 11:37:00,40.5,29.3,28.52,NNW,344,4.9,4.9,64,0.00,,---,0.00,VWS V14.01,2013-03-07 16:37:00,
2013-03-07 11:42:00,40.1,29.3,28.52,WNW,292,6.0,6.0,65,0.00,,---,0.00,VWS V14.01,2013-03-07 16:42:00,
2013-03-07 11:47:00,39.9,28.7,28.52,West,278,6.0,6.0,64,0.00,,---,0.00,VWS V14.01,2013-03-07 16:47:00,
2013-03-07 11:52:00,40.5,30.0,28.52,NW,311,4.9,6.0,66,0.00,,---,0.00,VWS V14.01,2013-03-07 16:52:00,
2013-03-07 11:57:00,41.0,29.8,28.52,NNE,21,4.9,6.0,64,0.00,,---,0.00,VWS V14.01,2013-03-07 16:57:00,
2013-03-07 12:02:00,41.4,30.5,28.52,North,355,4.9,4.9,65,0.00,,---,0.00,VWS V14.01,2013-03-07 17:02:00,
2013-03-07 12:08:00,41.7,30.4,28.52,NW,304,4.0,4.9,64,0.00,,---,0.00,VWS V14.01,2013-03-07 17:08:00,
2013-03-07 12:13:00,41.5,30.2,29.31,WNW,291,8.0,13.0,64,0.00,,,0.00,meteohub,2013-03-07 17:13:00,
2013-03-07 12:14:00,41.7,30.4,28.52,North,355,4.0,4.0,64,0.00,,---,0.00,VWS V14.01,2013-03-07 17:14:00,
2013-03-07 12:15:00,41.7,30.4,28.52,North,355,4.0,4.0,64,0.00,,---,0.00,VWS V14.01,2013-03-07 17:15:00,
2013-03-07 12:19:00,41.5,29.8,29.32,NNE,28,2.0,13.0,63,0.00,,,0.00,meteohub,2013-03-07 17:19:00,
2013-03-07 12:20:00,41.5,29.9,28.52,NNE,28,4.9,4.9,63,0.00,,---,0.00,VWS V14.01,2013-03-07 17:20:00,
2013-03-07 12:24:00,41.5,29.5,28.51,North,355,6.0,6.0,62,0.00,,---,0.00,VWS V14.01,2013-03-07 17:24:00,
2013-03-07 12:25:00,41.5,29.5,28.51,North,355,6.0,6.0,62,0.00,,---,0.00,VWS V14.01,2013-03-07 17:25:00,
2013-03-07 12:30:00,41.5,29.5,28.52,NNW,334,4.9,4.9,62,0.00,,---,0.00,VWS V14.01,2013-03-07 17:30:00,
2013-03-07 12:35:00,41.5,29.9,28.52,NW,309,6.0,6.0,63,0.00,,---,0.00,VWS V14.01,2013-03-07 17:35:00,
2013-03-07 12:40:00,41.5,30.2,28.51,WNW,284,6.0,6.0,64,0.00,,---,0.00,VWS V14.01,2013-03-07 17:40:00,
2013-03-07 12:42:00,41.7,30.0,28.52,NNW,345,6.0,6.0,63,0.00,,---,0.00,VWS V14.01,2013-03-07 17:42:00,
2013-03-07 12:45:00,42.1,30.4,28.51,North,355,6.0,6.0,63,0.00,,---,0.00,VWS V14.01,2013-03-07 17:45:00,
2013-03-07 12:47:00,42.1,30.4,28.52,NE,44,4.9,6.0,63,0.00,,---,0.00,VWS V14.01,2013-03-07 17:47:00,
2013-03-07 12:50:00,42.3,30.2,28.51,ENE,57,4.9,6.0,62,0.00,,---,0.00,VWS V14.01,2013-03-07 17:50:00,
2013-03-07 12:52:00,42.4,30.3,28.51,NNW,330,4.0,6.0,62,0.00,,---,0.00,VWS V14.01,2013-03-07 17:52:00,
2013-03-07 12:56:00,42.3,30.2,28.51,NNE,12,4.0,4.0,62,0.00,,---,0.00,VWS V14.01,2013-03-07 17:56:00,
2013-03-07 12:57:00,42.3,30.2,28.51,NNE,26,4.0,4.0,62,0.00,,---,0.00,VWS V14.01,2013-03-07 17:57:00,
2013-03-07 13:01:00,42.3,29.8,28.51,SSE,161,4.9,4.9,61,0.00,,---,0.00,VWS V14.01,2013-03-07 18:01:00,
2013-03-07 13:02:00,42.3,30.6,28.51,NW,309,4.0,4.9,63,0.00,,---,0.00,VWS V14.01,2013-03-07 18:02:00,
2013-03-07 13:03:00,42.3,30.6,28.51,NW,309,4.0,4.9,63,0.00,,---,0.00,VWS V14.01,2013-03-07 18:03:00,
2013-03-07 13:06:00,42.1,29.6,28.51,NNE,28,4.9,4.9,61,0.00,,---,0.00,VWS V14.01,2013-03-07 18:06:00,
2013-03-07 13:07:00,41.9,29.9,28.51,WSW,242,4.9,4.9,62,0.00,,---,0.00,VWS V14.01,2013-03-07 18:07:00,
2013-03-07 13:08:00,41.9,29.9,28.51,WSW,242,4.9,4.9,62,0.00,,---,0.00,VWS V14.01,2013-03-07 18:08:00,
2013-03-07 13:11:00,41.7,29.3,28.51,NE,37,4.9,4.9,61,0.00,,---,0.00,VWS V14.01,2013-03-07 18:11:00,
2013-03-07 13:13:00,41.9,30.2,28.51,NNE,26,6.0,6.0,63,0.00,,---,0.00,VWS V14.01,2013-03-07 18:13:00,
2013-03-07 13:16:00,42.3,31.0,28.51,South,183,4.9,6.0,64,0.00,,---,0.00,VWS V14.01,2013-03-07 18:16:00,
2013-03-07 13:18:00,42.4,30.7,28.51,North,9,4.9,6.0,63,0.00,,---,0.00,VWS V14.01,2013-03-07 18:18:00,
2013-03-07 13:21:00,42.8,30.7,28.50,NNW,348,4.9,6.0,62,0.00,,---,0.00,VWS V14.01,2013-03-07 18:21:00,
2013-03-07 13:23:00,43.2,30.6,29.30,NNW,327,3.0,14.0,61,0.00,,,0.00,meteohub,2013-03-07 18:23:00,
2013-03-07 13:24:00,43.2,30.7,28.50,NNW,327,4.9,4.9,61,0.00,,---,0.00,VWS V14.01,2013-03-07 18:24:00,
2013-03-07 13:26:00,43.3,30.8,28.50,NNE,24,4.0,4.9,61,0.00,,---,0.00,VWS V14.01,2013-03-07 18:26:00,
2013-03-07 13:29:00,43.5,31.0,28.50,North,0,4.9,4.9,61,0.00,,---,0.00,VWS V14.01,2013-03-07 18:29:00,
2013-03-07 13:31:00,43.7,30.7,28.50,WNW,294,4.9,4.9,60,0.00,,---,0.00,VWS V14.01,2013-03-07 18:31:00,
2013-03-07 13:34:00,43.5,30.1,28.50,NNW,346,6.9,6.9,59,0.00,,---,0.00,VWS V14.01,2013-03-07 18:34:00,
2013-03-07 13:38:00,43.5,30.5,28.50,North,355,6.9,6.9,60,0.00,,---,0.00,VWS V14.01,2013-03-07 18:38:00,
2013-03-07 13:39:00,43.5,31.0,28.50,WNW,290,6.9,6.9,61,0.00,,---,0.00,VWS V14.01,2013-03-07 18:39:00,
2013-03-07 13:43:00,43.9,30.9,28.50,NNE,28,4.9,6.9,60,0.00,,---,0.00,VWS V14.01,2013-03-07 18:43:00,
2013-03-07 13:44:00,43.9,30.9,28.50,North,5,4.9,6.9,60,0.00,,---,0.00,VWS V14.01,2013-03-07 18:44:00,
2013-03-07 13:48:00,44.1,31.1,28.50,NE,51,4.9,6.9,60,0.00,,---,0.00,VWS V14.01,2013-03-07 18:48:00,
2013-03-07 13:49:00,44.1,31.1,28.50,North,351,4.9,6.9,60,0.00,,---,0.00,VWS V14.01,2013-03-07 18:49:00,
2013-03-07 13:53:00,44.1,30.3,28.50,WNW,294,4.9,4.9,58,0.00,,---,0.00,VWS V14.01,2013-03-07 18:53:00,
2013-03-07 13:54:00,43.9,30.1,28.50,NW,319,4.9,4.9,58,0.00,,---,0.00,VWS V14.01,2013-03-07 18:54:00,
2013-03-07 13:58:00,44.1,31.1,28.49,NNE,13,4.9,4.9,60,0.00,,---,0.00,VWS V14.01,2013-03-07 18:58:00,
2013-03-07 13:59:00,44.1,31.1,28.50,NNW,339,4.9,4.9,60,0.00,,---,0.00,VWS V14.01,2013-03-07 18:59:00,
2013-03-07 14:03:00,44.2,30.4,28.50,NW,306,6.0,6.0,58,0.00,,---,0.00,VWS V14.01,2013-03-07 19:03:00,
2013-03-07 14:04:00,44.2,30.8,28.49,NNW,334,6.0,6.0,59,0.00,,---,0.00,VWS V14.01,2013-03-07 19:04:00,
2013-03-07 14:08:00,44.2,30.8,28.50,NW,322,6.0,6.0,59,0.00,,---,0.00,VWS V14.01,2013-03-07 19:08:00,
2013-03-07 14:09:00,44.2,30.4,28.50,North,0,6.9,6.9,58,0.00,,---,0.00,VWS V14.01,2013-03-07 19:09:00,
2013-03-07 14:13:00,44.1,29.9,28.50,North,9,6.9,6.9,57,0.00,,---,0.00,VWS V14.01,2013-03-07 19:13:00,
2013-03-07 14:15:00,44.1,29.8,29.29,NNW,333,4.0,15.0,57,0.00,,,0.00,meteohub,2013-03-07 19:15:00,
2013-03-07 14:16:00,44.1,29.9,28.50,NNW,333,6.9,6.9,57,0.00,,---,0.00,VWS V14.01,2013-03-07 19:16:00,
2013-03-07 14:18:00,44.1,30.3,28.50,NNW,342,6.9,6.9,58,0.00,,---,0.00,VWS V14.01,2013-03-07 19:18:00,
2013-03-07 14:21:00,44.1,30.7,28.50,West,263,6.0,6.9,59,0.00,,---,0.00,VWS V14.01,2013-03-07 19:21:00,
2013-03-07 14:23:00,44.1,30.3,28.49,NNE,19,6.0,6.9,58,0.00,,---,0.00,VWS V14.01,2013-03-07 19:23:00,
2013-03-07 14:26:00,44.1,29.9,28.50,NNE,21,4.9,6.9,57,0.00,,---,0.00,VWS V14.01,2013-03-07 19:26:00,
2013-03-07 14:27:00,44.1,29.9,28.50,NNE,21,4.9,6.9,57,0.00,,---,0.00,VWS V14.01,2013-03-07 19:27:00,
2013-03-07 14:30:00,44.1,30.3,28.50,NNW,344,4.0,4.0,58,0.00,,---,0.00,VWS V14.01,2013-03-07 19:30:00,
2013-03-07 14:31:00,44.1,29.9,28.50,NW,304,4.0,4.0,57,0.00,,---,0.00,VWS V14.01,2013-03-07 19:31:00,
2013-03-07 14:32:00,44.1,29.9,28.50,NW,304,4.0,4.0,57,0.00,,---,0.00,VWS V14.01,2013-03-07 19:32:00,
2013-03-07 14:35:00,44.1,29.9,28.50,North,9,4.0,4.0,57,0.00,,---,0.00,VWS V14.01,2013-03-07 19:35:00,
2013-03-07 14:36:00,43.9,29.7,28.50,NNE,17,4.0,4.0,57,0.00,,---,0.00,VWS V14.01,2013-03-07 19:36:00,
2013-03-07 14:37:00,43.9,29.7,28.50,NNE,17,4.0,4.0,57,0.00,,---,0.00,VWS V14.01,2013-03-07 19:37:00,
2013-03-07 14:40:00,43.9,29.7,28.50,NNE,21,4.9,4.9,57,0.00,,---,0.00,VWS V14.01,2013-03-07 19:40:00,
2013-03-07 14:42:00,43.5,29.3,29.30,NNW,340,4.0,12.0,57,0.00,,,0.00,meteohub,2013-03-07 19:42:00,
2013-03-07 14:45:00,43.5,29.7,28.50,NNE,15,4.9,4.9,58,0.00,,---,0.00,VWS V14.01,2013-03-07 19:45:00,
2013-03-07 14:47:00,43.5,29.7,29.30,WNW,298,7.0,12.0,58,0.00,,,0.00,meteohub,2013-03-07 19:47:00,
2013-03-07 14:50:00,43.5,29.3,28.50,North,349,4.9,4.9,57,0.00,,---,0.00,VWS V14.01,2013-03-07 19:50:00,
2013-03-07 14:51:00,43.5,29.3,29.30,NNW,336,5.0,15.0,57,0.00,,,0.00,meteohub,2013-03-07 19:51:00,
2013-03-07 14:52:00,43.5,29.7,28.50,NE,42,4.9,4.9,58,0.00,,---,0.00,VWS V14.01,2013-03-07 19:52:00,
2013-03-07 14:55:00,43.3,29.5,28.50,NNE,30,4.9,4.9,58,0.00,,---,0.00,VWS V14.01,2013-03-07 19:55:00,
2013-03-07 14:57:00,43.3,29.5,28.50,WNW,294,4.9,4.9,58,0.00,,---,0.00,VWS V14.01,2013-03-07 19:57:00,
2013-03-07 15:00:00,43.3,29.5,28.50,ENE,61,4.0,4.9,58,0.00,,---,0.00,VWS V14.01,2013-03-07 20:00:00,
2013-03-07 15:02:00,43.3,29.5,28.51,West,280,4.0,4.9,58,0.00,,---,0.00,VWS V14.01,2013-03-07 20:02:00,
2013-03-07 15:05:00,43.3,29.5,28.50,NNE,21,2.9,4.9,58,0.00,,---,0.00,VWS V14.01,2013-03-07 20:05:00,
2013-03-07 15:07:00,43.3,29.5,28.50,NW,315,2.9,4.9,58,0.00,,---,0.00,VWS V14.01,2013-03-07 20:07:00,
2013-03-07 15:10:00,43.5,29.7,28.50,NNE,30,2.9,4.9,58,0.00,,---,0.00,VWS V14.01,2013-03-07 20:10:00,
2013-03-07 15:12:00,43.5,29.7,28.50,North,350,2.9,4.9,58,0.00,,---,0.00,VWS V14.01,2013-03-07 20:12:00,
2013-03-07 15:16:00,43.3,29.1,28.50,North,5,4.9,4.9,57,0.00,,---,0.00,VWS V14.01,2013-03-07 20:16:00,
2013-03-07 15:17:00,43.3,29.1,28.50,NNE,16,4.9,4.9,57,0.00,,---,0.00,VWS V14.01,2013-03-07 20:17:00,
2013-03-07 15:21:00,43.3,29.1,28.50,NNW,336,4.9,4.9,57,0.00,,---,0.00,VWS V14.01,2013-03-07 20:21:00,
2013-03-07 15:22:00,43.3,29.1,28.50,North,9,4.9,4.9,57,0.00,,---,0.00,VWS V14.01,2013-03-07 20:22:00,
2013-03-07 15:23:00,43.3,29.1,28.50,North,10,4.9,4.9,57,0.00,,---,0.00,VWS V14.01,2013-03-07 20:23:00,
2013-03-07 15:26:00,43.3,29.5,28.50,North,0,4.0,4.9,58,0.00,,---,0.00,VWS V14.01,2013-03-07 20:26:00,
2013-03-07 15:27:00,43.3,29.5,28.50,NNW,344,2.9,4.9,58,0.00,,---,0.00,VWS V14.01,2013-03-07 20:27:00,
2013-03-07 15:28:00,43.3,29.5,28.50,NNW,344,2.9,4.9,58,0.00,,---,0.00,VWS V14.01,2013-03-07 20:28:00,
2013-03-07 15:31:00,43.5,30.1,28.50,NNW,336,2.9,2.9,59,0.00,,---,0.00,VWS V14.01,2013-03-07 20:31:00,
2013-03-07 15:32:00,43.5,29.7,28.51,North,9,2.0,2.9,58,0.00,,---,0.00,VWS V14.01,2013-03-07 20:32:00,
2013-03-07 15:33:00,43.5,29.3,28.51,NE,42,2.9,2.9,57,0.00,,---,0.00,VWS V14.01,2013-03-07 20:33:00,
2013-03-07 15:36:00,43.5,28.9,28.51,NNW,348,2.9,2.9,56,0.00,,---,0.00,VWS V14.01,2013-03-07 20:36:00,
2013-03-07 15:37:00,43.5,29.3,28.51,NNW,333,2.9,2.9,57,0.00,,---,0.00,VWS V14.01,2013-03-07 20:37:00,
2013-03-07 15:38:00,43.5,29.3,28.51,NNW,341,2.9,2.9,57,0.00,,---,0.00,VWS V14.01,2013-03-07 20:38:00,
2013-03-07 15:41:00,43.5,28.9,28.51,NW,321,4.0,4.0,56,0.00,,---,0.00,VWS V14.01,2013-03-07 20:41:00,
2013-03-07 15:44:00,43.5,29.3,29.31,NW,311,5.0,12.0,57,0.00,,,0.00,meteohub,2013-03-07 20:44:00,
2013-03-07 15:46:00,43.3,29.1,28.51,NNW,348,4.9,4.9,57,0.00,,---,0.00,VWS V14.01,2013-03-07 20:46:00,
2013-03-07 15:49:00,43.3,29.1,28.51,North,11,4.9,4.9,57,0.00,,---,0.00,VWS V14.01,2013-03-07 20:49:00,
2013-03-07 15:52:00,43.3,29.1,28.51,NNW,329,4.0,4.9,57,0.00,,---,0.00,VWS V14.01,2013-03-07 20:52:00,
2013-03-07 15:54:00,43.3,29.1,28.51,NNW,336,4.0,4.9,57,0.00,,---,0.00,VWS V14.01,2013-03-07 20:54:00,
2013-03-07 15:58:00,43.2,28.6,28.51,NNW,346,4.9,4.9,56,0.00,,---,0.00,VWS V14.01,2013-03-07 20:58:00,
2013-03-07 15:59:00,43.2,28.6,28.51,NW,310,4.9,4.9,56,0.00,,---,0.00,VWS V14.01,2013-03-07 20:59:00,
2013-03-07 16:03:00,43.2,29.0,28.51,NNE,27,6.0,6.0,57,0.00,,---,0.00,VWS V14.01,2013-03-07 21:03:00,
2013-03-07 16:04:00,43.2,29.0,28.51,West,263,6.0,6.0,57,0.00,,---,0.00,VWS V14.01,2013-03-07 21:04:00,
2013-03-07 16:05:00,43.2,29.0,28.51,ENE,58,4.9,6.0,57,0.00,,---,0.00,VWS V14.01,2013-03-07 21:05:00,
2013-03-07 16:08:00,43.0,28.4,28.51,NNE,30,6.0,6.0,56,0.00,,---,0.00,VWS V14.01,2013-03-07 21:08:00,
2013-03-07 16:09:00,43.0,28.4,28.51,North,9,6.0,6.0,56,0.00,,---,0.00,VWS V14.01,2013-03-07 21:09:00,
2013-03-07 16:10:00,43.0,28.8,28.51,North,355,4.9,6.0,57,0.00,,---,0.00,VWS V14.01,2013-03-07 21:10:00,
2013-03-07 16:13:00,43.0,28.8,28.51,North,355,4.9,6.0,57,0.00,,---,0.00,VWS V14.01,2013-03-07 21:13:00,
2013-03-07 16:14:00,43.0,28.8,28.51,NNE,13,4.9,6.0,57,0.00,,---,0.00,VWS V14.01,2013-03-07 21:14:00,
2013-03-07 16:15:00,43.0,28.8,28.51,NW,319,4.0,6.0,57,0.00,,---,0.00,VWS V14.01,2013-03-07 21:15:00,
2013-03-07 16:18:00,43.0,28.4,28.51,NNW,336,4.0,6.0,56,0.00,,---,0.00,VWS V14.01,2013-03-07 21:18:00,
2013-03-07 16:19:00,43.0,28.4,28.51,NNW,336,4.0,6.0,56,0.00,,---,0.00,VWS V14.01,2013-03-07 21:19:00,
2013-03-07 16:20:00,42.8,28.6,28.51,NNE,15,4.0,6.0,57,0.00,,---,0.00,VWS V14.01,2013-03-07 21:20:00,
2013-03-07 16:23:00,42.8,28.2,28.51,NW,319,6.0,6.0,56,0.00,,---,0.00,VWS V14.01,2013-03-07 21:23:00,
2013-03-07 16:24:00,42.8,28.2,28.51,NW,319,6.0,6.0,56,0.00,,---,0.00,VWS V14.01,2013-03-07 21:24:00,
2013-03-07 16:25:00,42.6,28.0,28.51,WNW,292,6.0,6.0,56,0.00,,---,0.00,VWS V14.01,2013-03-07 21:25:00,
2013-03-07 16:29:00,42.6,28.5,28.51,North,5,6.9,6.9,57,0.00,,---,0.00,VWS V14.01,2013-03-07 21:29:00,
2013-03-07 16:30:00,42.6,28.5,28.51,WNW,296,6.9,6.9,57,0.00,,---,0.00,VWS V14.01,2013-03-07 21:30:00,
2013-03-07 16:34:00,42.4,27.8,28.51,NNE,26,6.0,6.9,56,0.00,,---,0.00,VWS V14.01,2013-03-07 21:34:00,
2013-03-07 16:35:00,42.4,28.2,29.31,WNW,291,5.0,15.0,57,0.00,,,0.00,meteohub,2013-03-07 21:35:00,
2013-03-07 16:37:00,42.4,27.8,28.51,NNE,28,6.0,6.0,56,0.00,,---,0.00,VWS V14.01,2013-03-07 21:37:00,
2013-03-07 16:39:00,42.4,28.3,28.51,NNE,17,6.0,6.0,57,0.00,,---,0.00,VWS V14.01,2013-03-07 21:39:00,
2013-03-07 16:42:00,42.4,27.8,28.51,North,5,6.0,6.0,56,0.00,,---,0.00,VWS V14.01,2013-03-07 21:42:00,
2013-03-07 16:44:00,42.4,28.3,28.51,NNE,28,4.9,6.0,57,0.00,,---,0.00,VWS V14.01,2013-03-07 21:44:00,
2013-03-07 16:47:00,42.3,28.2,28.51,North,350,4.9,6.0,57,0.00,,---,0.00,VWS V14.01,2013-03-07 21:47:00,
2013-03-07 16:48:00,42.3,28.2,28.51,North,350,4.9,6.0,57,0.00,,---,0.00,VWS V14.01,2013-03-07 21:48:00,
2013-03-07 16:51:00,42.3,28.2,28.52,WNW,291,4.9,4.9,57,0.00,,---,0.00,VWS V14.01,2013-03-07 21:51:00,
2013-03-07 16:53:00,42.3,27.7,28.52,North,5,4.9,4.9,56,0.00,,---,0.00,VWS V14.01,2013-03-07 21:53:00,
2013-03-07 16:56:00,42.3,28.2,28.51,North,355,4.9,4.9,57,0.00,,---,0.00,VWS V14.01,2013-03-07 21:56:00,
2013-03-07 16:58:00,42.3,28.2,28.52,North,355,4.0,4.9,57,0.00,,---,0.00,VWS V14.01,2013-03-07 21:58:00,
2013-03-07 17:01:00,42.1,28.0,28.52,North,11,4.0,4.0,57,0.00,,---,0.00,VWS V14.01,2013-03-07 22:01:00,
2013-03-07 17:03:00,42.1,27.9,29.32,NNE,28,12.0,17.0,57,0.00,,,0.00,meteohub,2013-03-07 22:03:00,
2013-03-07 17:05:00,42.1,28.0,28.52,North,5,4.9,4.9,57,0.00,,---,0.00,VWS V14.01,2013-03-07 22:05:00,
2013-03-07 17:06:00,42.1,28.0,28.52,NE,40,4.9,4.9,57,0.00,,---,0.00,VWS V14.01,2013-03-07 22:06:00,
2013-03-07 17:10:00,42.1,28.0,28.52,North,0,4.0,4.9,57,0.00,,---,0.00,VWS V14.01,2013-03-07 22:10:00,
2013-03-07 17:11:00,42.1,28.4,28.52,North,355,4.0,4.9,58,0.00,,---,0.00,VWS V14.01,2013-03-07 22:11:00,
2013-03-07 17:15:00,41.9,27.8,28.52,West,281,2.9,4.9,57,0.00,,---,0.00,VWS V14.01,2013-03-07 22:15:00,
2013-03-07 17:16:00,41.7,28.0,28.52,North,355,2.9,4.9,58,0.00,,---,0.00,VWS V14.01,2013-03-07 22:16:00,
2013-03-07 17:20:00,41.7,27.6,28.52,NNW,343,2.0,2.0,57,0.00,,---,0.00,VWS V14.01,2013-03-07 22:20:00,
2013-03-07 17:21:00,41.7,27.6,28.52,NNE,25,2.9,2.9,57,0.00,,---,0.00,VWS V14.01,2013-03-07 22:21:00,
2013-03-07 17:25:00,41.7,27.6,28.52,North,0,2.0,2.9,57,0.00,,---,0.00,VWS V14.01,2013-03-07 22:25:00,
2013-03-07 17:26:00,41.5,27.8,28.52,NNE,32,2.0,2.9,58,0.00,,---,0.00,VWS V14.01,2013-03-07 22:26:00,
2013-03-07 17:30:00,41.5,27.8,28.52,NNE,19,2.0,2.0,58,0.00,,---,0.00,VWS V14.01,2013-03-07 22:30:00,
2013-03-07 17:33:00,41.5,27.8,28.53,NNW,347,2.0,2.0,58,0.00,,---,0.00,VWS V14.01,2013-03-07 22:33:00,
2013-03-07 17:35:00,41.5,27.8,28.53,NNE,26,2.0,2.0,58,0.00,,---,0.00,VWS V14.01,2013-03-07 22:35:00,
2013-03-07 17:38:00,41.4,27.8,28.53,NNE,26,2.0,2.0,58,0.00,,---,0.00,VWS V14.01,2013-03-07 22:38:00,
2013-03-07 17:40:00,41.4,27.8,28.53,NNE,30,0.9,2.0,58,0.00,,---,0.00,VWS V14.01,2013-03-07 22:40:00,
2013-03-07 17:41:00,41.4,27.8,28.53,NNW,327,2.0,2.0,58,0.00,,---,0.00,VWS V14.01,2013-03-07 22:41:00,
2013-03-07 17:43:00,41.4,29.0,28.53,NNW,344,2.9,2.9,61,0.00,,---,0.00,VWS V14.01,2013-03-07 22:43:00,
2013-03-07 17:46:00,41.2,27.1,29.33,NW,320,4.0,11.0,57,0.00,,,0.00,meteohub,2013-03-07 22:46:00,
2013-03-07 17:47:00,41.2,27.6,28.53,WNW,296,2.9,2.9,58,0.00,,---,0.00,VWS V14.01,2013-03-07 22:47:00,
2013-03-07 17:48:00,41.2,27.6,28.53,North,5,4.0,4.0,58,0.00,,---,0.00,VWS V14.01,2013-03-07 22:48:00,
2013-03-07 17:52:00,41.2,27.6,28.53,North,5,4.0,4.0,58,0.00,,---,0.00,VWS V14.01,2013-03-07 22:52:00,
2013-03-07 17:53:00,41.2,27.6,28.53,NNW,331,2.9,4.0,58,0.00,,---,0.00,VWS V14.01,2013-03-07 22:53:00,
2013-03-07 17:57:00,41.0,27.4,28.53,East,82,2.9,4.0,58,0.00,,---,0.00,VWS V14.01,2013-03-07 22:57:00,
2013-03-07 17:59:00,41.0,27.4,28.54,NNE,16,2.9,4.0,58,0.00,,---,0.00,VWS V14.01,2013-03-07 22:59:00,
2013-03-07 18:02:00,41.0,27.8,28.54,ESE,110,2.0,2.0,59,0.00,,---,0.00,VWS V14.01,2013-03-07 23:02:00,
2013-03-07 18:04:00,40.8,27.2,28.54,North,355,2.0,2.0,58,0.00,,---,0.00,VWS V14.01,2013-03-07 23:04:00,
2013-03-07 18:07:00,40.8,27.2,28.54,NNE,21,0.9,2.0,58,0.00,,---,0.00,VWS V14.01,2013-03-07 23:07:00,
2013-03-07 18:09:00,40.8,27.2,28.54,North,9,0.9,2.0,58,0.00,,---,0.00,VWS V14.01,2013-03-07 23:09:00,
2013-03-07 18:12:00,40.6,27.0,28.54,NNW,340,2.0,2.0,58,0.00,,---,0.00,VWS V14.01,2013-03-07 23:12:00,
2013-03-07 18:15:00,40.6,27.0,28.54,NNE,32,2.0,2.0,58,0.00,,---,0.00,VWS V14.01,2013-03-07 23:15:00,
2013-03-07 18:17:00,40.6,27.0,28.54,North,5,2.9,2.9,58,0.00,,---,0.00,VWS V14.01,2013-03-07 23:17:00,
2013-03-07 18:20:00,40.6,27.0,28.54,NNW,346,2.0,2.9,58,0.00,,---,0.00,VWS V14.01,2013-03-07 23:20:00,
2013-03-07 18:22:00,40.5,26.9,28.54,NNE,23,2.0,2.9,58,0.00,,---,0.00,VWS V14.01,2013-03-07 23:22:00,
2013-03-07 18:25:00,40.5,27.3,28.54,NE,36,2.0,2.9,59,0.00,,---,0.00,VWS V14.01,2013-03-07 23:25:00,
2013-03-07 18:27:00,40.5,27.3,28.54,North,5,2.0,2.9,59,0.00,,---,0.00,VWS V14.01,2013-03-07 23:27:00,
2013-03-07 18:30:00,40.5,27.3,28.55,SE,130,0.9,0.9,59,0.00,,---,0.00,VWS V14.01,2013-03-07 23:30:00,
2013-03-07 18:32:00,40.5,27.3,28.55,NNE,24,0.9,0.9,59,0.00,,---,0.00,VWS V14.01,2013-03-07 23:32:00,
2013-03-07 18:35:00,40.3,26.7,28.55,NNE,26,0.9,0.9,58,0.00,,---,0.00,VWS V14.01,2013-03-07 23:35:00,
2013-03-07 18:37:00,40.3,27.1,28.54,WNW,296,0.9,0.9,59,0.00,,---,0.00,VWS V14.01,2013-03-07 23:37:00,
2013-03-07 18:38:00,40.3,27.1,28.55,WNW,296,0.9,0.9,59,0.00,,---,0.00,VWS V14.01,2013-03-07 23:38:00,
2013-03-07 18:40:00,40.3,26.7,28.55,NNW,333,2.0,2.0,58,0.00,,---,0.00,VWS V14.01,2013-03-07 23:40:00,
2013-03-07 18:42:00,40.3,26.7,28.55,NNE,29,2.0,2.0,58,0.00,,---,0.00,VWS V14.01,2013-03-07 23:42:00,
2013-03-07 18:43:00,40.3,27.1,28.55,NNE,30,2.0,2.0,59,0.00,,---,0.00,VWS V14.01,2013-03-07 23:43:00,
2013-03-07 18:45:00,40.3,27.1,28.55,North,9,0.9,2.0,59,0.00,,---,0.00,VWS V14.01,2013-03-07 23:45:00,
2013-03-07 18:47:00,40.1,26.9,28.55,North,5,2.0,2.0,59,0.00,,---,0.00,VWS V14.01,2013-03-07 23:47:00,
2013-03-07 18:48:00,40.1,26.9,28.55,North,0,2.0,2.0,59,0.00,,---,0.00,VWS V14.01,2013-03-07 23:48:00,
2013-03-07 18:50:00,40.1,26.5,28.55,NNE,26,2.0,2.0,58,0.00,,---,0.00,VWS V14.01,2013-03-07 23:50:00,
2013-03-07 18:53:00,39.9,26.8,28.55,NE,50,2.0,2.0,59,0.00,,---,0.00,VWS V14.01,2013-03-07 23:53:00,
2013-03-07 18:55:00,39.9,26.8,28.55,NE,45,2.9,2.9,59,0.00,,---,0.00,VWS V14.01,2013-03-07 23:55:00,
2013-03-07 18:58:00,39.9,26.8,28.55,WNW,296,2.0,2.9,59,0.00,,---,0.00,VWS V14.01,2013-03-07 23:58:00,
2013-03-07 19:00:00,39.9,26.8,28.55,ENE,78,0.9,0.9,59,0.00,,---,0.00,VWS V14.01,2013-03-08 00:00:00,
2013-03-07 19:03:00,39.9,26.8,28.55,ENE,78,0.9,0.9,59,0.00,,---,0.00,VWS V14.01,2013-03-08 00:03:00,
2013-03-07 19:05:00,39.9,27.2,28.55,North,355,0.9,0.9,60,0.00,,---,0.00,VWS V14.01,2013-03-08 00:05:00,
2013-03-07 19:08:00,39.7,26.6,28.55,NE,43,0.9,0.9,59,0.00,,---,0.00,VWS V14.01,2013-03-08 00:08:00,
2013-03-07 19:10:00,39.7,26.6,28.55,NNE,26,0.9,0.9,59,0.00,,---,0.00,VWS V14.01,2013-03-08 00:10:00,
2013-03-07 19:13:00,39.7,26.6,28.55,NNE,26,0.9,0.9,59,0.00,,---,0.00,VWS V14.01,2013-03-08 00:13:00,
2013-03-07 19:15:00,39.7,26.6,28.56,NNE,28,2.0,2.0,59,0.00,,---,0.00,VWS V14.01,2013-03-08 00:15:00,
2013-03-07 19:18:00,39.7,26.2,29.35,NNE,25,5.0,6.0,58,0.00,,,0.00,meteohub,2013-03-08 00:18:00,
2013-03-07 19:20:00,39.7,26.6,28.56,NNE,32,2.9,2.9,59,0.00,,---,0.00,VWS V14.01,2013-03-08 00:20:00,
2013-03-07 19:23:00,39.7,26.6,28.56,North,355,2.9,2.9,59,0.00,,---,0.00,VWS V14.01,2013-03-08 00:23:00,
2013-03-07 19:25:00,39.6,26.5,28.56,ENE,65,2.9,2.9,59,0.00,,---,0.00,VWS V14.01,2013-03-08 00:25:00,
2013-03-07 19:28:00,39.6,26.5,28.56,ENE,65,2.9,2.9,59,0.00,,---,0.00,VWS V14.01,2013-03-08 00:28:00,
2013-03-07 19:30:00,39.6,26.5,28.56,North,5,2.0,2.0,59,0.00,,---,0.00,VWS V14.01,2013-03-08 00:30:00,
2013-03-07 19:33:00,39.6,26.5,28.56,NE,50,0.9,2.0,59,0.00,,---,0.00,VWS V14.01,2013-03-08 00:33:00,
2013-03-07 19:34:00,39.6,26.5,28.55,North,351,2.0,2.0,59,0.00,,---,0.00,VWS V14.01,2013-03-08 00:34:00,
2013-03-07 19:35:00,39.6,26.5,28.55,North,355,2.0,2.0,59,0.00,,---,0.00,VWS V14.01,2013-03-08 00:35:00,
2013-03-07 19:38:00,39.6,26.5,28.55,North,351,2.0,2.0,59,0.00,,---,0.00,VWS V14.01,2013-03-08 00:38:00,
2013-03-07 19:39:00,39.6,26.5,28.55,North,0,2.0,2.0,59,0.00,,---,0.00,VWS V14.01,2013-03-08 00:39:00,
2013-03-07 19:40:00,39.6,26.5,28.55,North,349,2.9,2.9,59,0.00,,---,0.00,VWS V14.01,2013-03-08 00:40:00,
2013-03-07 19:43:00,39.4,26.3,28.55,NNE,20,2.9,2.9,59,0.00,,---,0.00,VWS V14.01,2013-03-08 00:43:00,
2013-03-07 19:44:00,39.4,26.3,28.55,NE,44,2.9,2.9,59,0.00,,---,0.00,VWS V14.01,2013-03-08 00:44:00,
2013-03-07 19:46:00,39.4,25.9,28.55,NNW,340,2.9,2.9,58,0.00,,---,0.00,VWS V14.01,2013-03-08 00:46:00,
2013-03-07 19:48:00,39.4,25.9,28.55,NNE,16,4.0,4.0,58,0.00,,---,0.00,VWS V14.01,2013-03-08 00:48:00,
2013-03-07 19:49:00,39.4,26.3,28.55,North,5,4.0,4.0,59,0.00,,---,0.00,VWS V14.01,2013-03-08 00:49:00,
2013-03-07 19:51:00,39.4,26.3,28.55,NNE,22,4.0,4.0,59,0.00,,---,0.00,VWS V14.01,2013-03-08 00:51:00,
2013-03-07 19:53:00,39.4,26.3,28.55,NW,315,2.9,4.0,59,0.00,,---,0.00,VWS V14.01,2013-03-08 00:53:00,
2013-03-07 19:54:00,39.4,26.3,28.55,NW,308,2.9,4.0,59,0.00,,---,0.00,VWS V14.01,2013-03-08 00:54:00,
2013-03-07 19:56:00,39.4,26.3,28.55,NW,308,2.0,4.0,59,0.00,,---,0.00,VWS V14.01,2013-03-08 00:56:00,
2013-03-07 19:58:00,39.4,26.3,28.55,NNW,332,2.9,4.0,59,0.00,,---,0.00,VWS V14.01,2013-03-08 00:58:00,
2013-03-07 19:59:00,39.4,26.3,28.55,NE,38,2.9,4.0,59,0.00,,---,0.00,VWS V14.01,2013-03-08 00:59:00,
2013-03-07 20:01:00,39.2,26.1,28.55,NE,38,2.9,2.9,59,0.00,,---,0.00,VWS V14.01,2013-03-08 01:01:00,
2013-03-07 20:04:00,39.2,26.1,28.55,North,5,2.9,2.9,59,0.00,,---,0.00,VWS V14.01,2013-03-08 01:04:00,
2013-03-07 20:05:00,39.2,26.1,28.56,NNE,15,2.9,2.9,59,0.00,,---,0.00,VWS V14.01,2013-03-08 01:05:00,
2013-03-07 20:06:00,39.2,26.1,28.55,North,5,4.0,4.0,59,0.00,,---,0.00,VWS V14.01,2013-03-08 01:06:00,
2013-03-07 20:09:00,39.0,25.9,28.55,NE,47,2.9,4.0,59,0.00,,---,0.00,VWS V14.01,2013-03-08 01:09:00,
2013-03-07 20:10:00,39.0,25.9,28.55,NE,34,2.0,4.0,59,0.00,,---,0.00,VWS V14.01,2013-03-08 01:10:00,
2013-03-07 20:11:00,39.0,25.9,28.55,North,355,2.0,4.0,59,0.00,,---,0.00,VWS V14.01,2013-03-08 01:11:00,
2013-03-07 20:14:00,39.0,25.9,28.55,North,0,2.9,4.0,59,0.00,,---,0.00,VWS V14.01,2013-03-08 01:14:00,
2013-03-07 20:15:00,39.0,25.9,28.55,North,355,2.9,4.0,59,0.00,,---,0.00,VWS V14.01,2013-03-08 01:15:00,
2013-03-07 20:16:00,39.0,25.9,28.55,North,355,2.0,4.0,59,0.00,,---,0.00,VWS V14.01,2013-03-08 01:16:00,
2013-03-07 20:19:00,39.0,25.9,28.55,NNW,338,2.0,4.0,59,0.00,,---,0.00,VWS V14.01,2013-03-08 01:19:00,
2013-03-07 20:20:00,39.0,25.9,28.55,WSW,257,2.0,4.0,59,0.00,,---,0.00,VWS V14.01,2013-03-08 01:20:00,
2013-03-07 20:21:00,39.0,25.9,28.55,NNE,28,2.0,4.0,59,0.00,,---,0.00,VWS V14.01,2013-03-08 01:21:00,
2013-03-07 20:24:00,39.0,25.9,28.55,North,355,2.0,4.0,59,0.00,,---,0.00,VWS V14.01,2013-03-08 01:24:00,
2013-03-07 20:25:00,39.0,25.9,28.55,ENE,59,2.0,4.0,59,0.00,,---,0.00,VWS V14.01,2013-03-08 01:25:00,
2013-03-07 20:26:00,39.0,25.9,28.55,NNE,30,2.0,4.0,59,0.00,,---,0.00,VWS V14.01,2013-03-08 01:26:00,
2013-03-07 20:29:00,39.0,25.9,28.55,WNW,301,2.9,4.0,59,0.00,,---,0.00,VWS V14.01,2013-03-08 01:29:00,
2013-03-07 20:30:00,39.0,25.9,28.55,NNW,336,2.9,2.9,59,0.00,,---,0.00,VWS V14.01,2013-03-08 01:30:00,
2013-03-07 20:31:00,38.8,25.7,28.55,NNW,335,4.0,4.0,59,0.00,,---,0.00,VWS V14.01,2013-03-08 01:31:00,
2013-03-07 20:34:00,38.8,26.1,28.55,North,5,4.0,4.0,60,0.00,,---,0.00,VWS V14.01,2013-03-08 01:34:00,
2013-03-07 20:35:00,38.8,26.1,28.55,NNE,32,4.0,4.0,60,0.00,,---,0.00,VWS V14.01,2013-03-08 01:35:00,
2013-03-07 20:36:00,38.8,26.1,28.55,NNW,346,4.0,4.0,60,0.00,,---,0.00,VWS V14.01,2013-03-08 01:36:00,
2013-03-07 20:39:00,38.8,26.1,28.55,WNW,291,4.0,4.9,60,0.00,,---,0.00,VWS V14.01,2013-03-08 01:39:00,
2013-03-07 20:40:00,38.8,25.7,28.55,NNW,342,4.0,4.9,59,0.00,,---,0.00,VWS V14.01,2013-03-08 01:40:00,
2013-03-07 20:42:00,38.8,26.1,28.55,NNE,21,4.0,4.9,60,0.00,,---,0.00,VWS V14.01,2013-03-08 01:42:00,
2013-03-07 20:45:00,38.8,26.1,29.35,NNE,12,2.0,11.0,60,0.00,,,0.00,meteohub,2013-03-08 01:45:00,
2013-03-07 20:46:00,38.8,26.1,28.55,WNW,300,4.0,4.0,60,0.00,,---,0.00,VWS V14.01,2013-03-08 01:46:00,
2013-03-07 20:47:00,38.8,26.1,28.55,North,0,4.0,4.0,60,0.00,,---,0.00,VWS V14.01,2013-03-08 01:47:00,
2013-03-07 20:51:00,38.8,26.1,28.55,NNE,13,2.9,4.0,60,0.00,,---,0.00,VWS V14.01,2013-03-08 01:51:00,
2013-03-07 20:52:00,38.8,26.1,28.55,NNE,23,2.9,4.0,60,0.00,,---,0.00,VWS V14.01,2013-03-08 01:52:00,
2013-03-07 20:56:00,38.8,26.1,28.55,NNW,340,2.0,4.0,60,0.00,,---,0.00,VWS V14.01,2013-03-08 01:56:00,
2013-03-07 20:57:00,38.7,26.0,28.55,NNW,348,2.0,4.0,60,0.00,,---,0.00,VWS V14.01,2013-03-08 01:57:00,
2013-03-07 21:01:00,38.7,26.4,28.55,North,10,2.9,2.9,61,0.00,,---,0.00,VWS V14.01,2013-03-08 02:01:00,
2013-03-07 21:02:00,38.7,26.4,28.55,NNW,331,2.9,2.9,61,0.00,,---,0.00,VWS V14.01,2013-03-08 02:02:00,
2013-03-07 21:06:00,38.7,26.4,28.55,NNE,13,2.0,2.9,61,0.00,,---,0.00,VWS V14.01,2013-03-08 02:06:00,
2013-03-07 21:07:00,38.7,26.4,28.55,NNE,13,2.0,2.9,61,0.00,,---,0.00,VWS V14.01,2013-03-08 02:07:00,
2013-03-07 21:11:00,38.5,26.2,28.55,NNW,329,2.0,2.9,61,0.00,,---,0.00,VWS V14.01,2013-03-08 02:11:00,
2013-03-07 21:12:00,38.5,26.2,28.55,NNW,329,2.0,2.9,61,0.00,,---,0.00,VWS V14.01,2013-03-08 02:12:00,
2013-03-07 21:16:00,38.5,26.2,28.55,NNW,348,2.9,2.9,61,0.00,,---,0.00,VWS V14.01,2013-03-08 02:16:00,
2013-03-07 21:17:00,38.5,26.2,28.55,NNW,348,2.9,2.9,61,0.00,,---,0.00,VWS V14.01,2013-03-08 02:17:00,
2013-03-07 21:22:00,38.5,26.6,28.55,North,350,2.9,2.9,62,0.00,,---,0.00,VWS V14.01,2013-03-08 02:22:00,
2013-03-07 21:28:00,38.3,26.8,28.55,North,351,2.9,2.9,63,0.00,,---,0.00,VWS V14.01,2013-03-08 02:28:00,
2013-03-07 21:33:00,38.1,26.6,28.55,North,350,2.9,2.9,63,0.00,,---,0.00,VWS V14.01,2013-03-08 02:33:00,
2013-03-07 21:38:00,38.1,27.0,28.55,WSW,257,4.0,4.0,64,0.00,,---,0.00,VWS V14.01,2013-03-08 02:38:00,
2013-03-07 21:43:00,37.9,26.8,28.55,WNW,296,2.9,2.9,64,0.00,,---,0.00,VWS V14.01,2013-03-08 02:43:00,
2013-03-07 21:48:00,37.9,26.8,28.55,NE,55,2.9,4.0,64,0.00,,---,0.00,VWS V14.01,2013-03-08 02:48:00,
2013-03-07 21:53:00,37.9,26.8,29.35,North,349,2.0,10.0,64,0.00,,,0.00,meteohub,2013-03-08 02:53:00,
2013-03-07 21:54:00,37.9,26.8,28.55,NNE,29,4.0,4.0,64,0.00,,---,0.00,VWS V14.01,2013-03-08 02:54:00,
2013-03-07 21:58:00,37.9,26.8,29.35,NW,312,4.0,13.0,64,0.00,,,0.00,meteohub,2013-03-08 02:58:00,
2013-03-07 21:59:00,37.9,26.8,28.55,NNW,338,4.0,4.0,64,0.00,,---,0.00,VWS V14.01,2013-03-08 02:59:00,
2013-03-07 22:04:00,37.9,26.8,29.35,WNW,299,3.0,13.0,64,0.00,,,0.00,meteohub,2013-03-08 03:04:00,
2013-03-07 22:06:00,37.9,26.8,29.35,NNW,335,3.0,13.0,64,0.00,,,0.00,meteohub,2013-03-08 03:06:00,
2013-03-07 22:09:00,37.9,26.8,28.55,North,350,4.0,4.0,64,0.00,,---,0.00,VWS V14.01,2013-03-08 03:09:00,
2013-03-07 22:14:00,37.8,26.7,28.55,North,5,4.0,4.0,64,0.00,,---,0.00,VWS V14.01,2013-03-08 03:14:00,
2013-03-07 22:19:00,37.8,26.7,28.55,NE,49,4.0,4.0,64,0.00,,---,0.00,VWS V14.01,2013-03-08 03:19:00,
2013-03-07 22:24:00,37.8,26.7,28.55,North,355,2.9,4.0,64,0.00,,---,0.00,VWS V14.01,2013-03-08 03:24:00,
2013-03-07 22:29:00,37.6,25.8,28.55,West,275,2.9,4.0,62,0.00,,---,0.00,VWS V14.01,2013-03-08 03:29:00,
2013-03-07 22:34:00,37.6,25.8,28.55,ENE,65,4.0,4.0,62,0.00,,---,0.00,VWS V14.01,2013-03-08 03:34:00,
2013-03-07 22:35:00,37.4,25.6,28.55,NW,315,4.0,4.0,62,0.00,,---,0.00,VWS V14.01,2013-03-08 03:35:00,
2013-03-07 22:39:00,37.4,25.2,29.35,NNW,345,10.0,13.0,61,0.00,,,0.00,meteohub,2013-03-08 03:39:00,
2013-03-07 22:40:00,37.2,25.0,28.55,North,5,4.9,4.9,61,0.00,,---,0.00,VWS V14.01,2013-03-08 03:40:00,
2013-03-07 22:44:00,37.2,24.6,28.55,North,5,6.0,6.0,60,0.00,,---,0.00,VWS V14.01,2013-03-08 03:44:00,
2013-03-07 22:45:00,37.2,24.6,28.55,North,11,6.0,6.0,60,0.00,,---,0.00,VWS V14.01,2013-03-08 03:45:00,
2013-03-07 22:49:00,37.2,25.0,28.55,NNW,338,4.9,6.0,61,0.00,,---,0.00,VWS V14.01,2013-03-08 03:49:00,
2013-03-07 22:50:00,37.2,25.0,28.55,NE,54,4.9,6.0,61,0.00,,---,0.00,VWS V14.01,2013-03-08 03:50:00,
2013-03-07 22:54:00,37.0,24.4,28.56,North,355,2.9,6.0,60,0.00,,---,0.00,VWS V14.01,2013-03-08 03:54:00,
2013-03-07 22:55:00,37.0,24.4,28.56,North,5,4.0,6.0,60,0.00,,---,0.00,VWS V14.01,2013-03-08 03:55:00,
2013-03-07 22:59:00,37.0,24.4,28.55,ENE,78,4.9,6.0,60,0.00,,---,0.00,VWS V14.01,2013-03-08 03:59:00,
2013-03-07 23:00:00,37.0,24.4,28.55,ENE,61,4.9,4.9,60,0.00,,---,0.00,VWS V14.01,2013-03-08 04:00:00,
2013-03-07 23:04:00,36.9,24.3,28.55,NNE,13,4.9,4.9,60,0.00,,---,0.00,VWS V14.01,2013-03-08 04:04:00,
2013-03-07 23:05:00,36.9,24.3,28.55,NNE,24,4.9,4.9,60,0.00,,---,0.00,VWS V14.01,2013-03-08 04:05:00,
2013-03-07 23:09:00,36.9,24.3,28.55,NNW,329,4.0,4.9,60,0.00,,---,0.00,VWS V14.01,2013-03-08 04:09:00,
2013-03-07 23:10:00,36.9,24.3,28.55,North,5,4.0,4.9,60,0.00,,---,0.00,VWS V14.01,2013-03-08 04:10:00,
2013-03-07 23:14:00,36.7,24.1,28.55,NNE,27,2.9,4.9,60,0.00,,---,0.00,VWS V14.01,2013-03-08 04:14:00,
2013-03-07 23:15:00,36.7,24.1,28.55,NE,56,2.9,4.9,60,0.00,,---,0.00,VWS V14.01,2013-03-08 04:15:00,
2013-03-07 23:19:00,36.5,24.0,28.55,NW,311,2.0,4.9,60,0.00,,---,0.00,VWS V14.01,2013-03-08 04:19:00,
2013-03-07 23:20:00,36.5,24.0,28.55,NE,53,2.9,4.9,60,0.00,,---,0.00,VWS V14.01,2013-03-08 04:20:00,
2013-03-07 23:24:00,36.3,24.1,28.55,NE,42,2.9,4.9,61,0.00,,---,0.00,VWS V14.01,2013-03-08 04:24:00,
2013-03-07 23:25:00,36.3,24.1,28.55,North,5,2.9,4.9,61,0.00,,---,0.00,VWS V14.01,2013-03-08 04:25:00,
2013-03-07 23:29:00,36.1,24.0,28.55,NE,42,4.0,4.9,61,0.00,,---,0.00,VWS V14.01,2013-03-08 04:29:00,
2013-03-07 23:30:00,36.1,24.0,28.55,NNW,334,4.0,4.0,61,0.00,,---,0.00,VWS V14.01,2013-03-08 04:30:00,
2013-03-07 23:34:00,36.1,24.0,28.55,North,5,2.9,2.9,61,0.00,,---,0.00,VWS V14.01,2013-03-08 04:34:00,
2013-03-07 23:35:00,36.1,24.0,28.55,NNW,341,2.9,2.9,61,0.00,,---,0.00,VWS V14.01,2013-03-08 04:35:00,
2013-03-07 23:36:00,36.0,23.9,28.55,NE,47,2.9,2.9,61,0.00,,---,0.00,VWS V14.01,2013-03-08 04:36:00,
2013-03-07 23:39:00,36.0,24.3,28.55,NW,311,2.9,2.9,62,0.00,,---,0.00,VWS V14.01,2013-03-08 04:39:00,
2013-03-07 23:40:00,35.8,24.1,28.55,North,11,2.0,2.9,62,0.00,,---,0.00,VWS V14.01,2013-03-08 04:40:00,
2013-03-07 23:41:00,35.8,24.1,28.55,North,11,2.0,2.9,62,0.00,,---,0.00,VWS V14.01,2013-03-08 04:41:00,
2013-03-07 23:44:00,35.8,24.1,28.55,East,90,2.0,2.9,62,0.00,,---,0.00,VWS V14.01,2013-03-08 04:44:00,
2013-03-07 23:47:00,35.6,23.9,28.55,North,355,2.0,2.0,62,0.00,,---,0.00,VWS V14.01,2013-03-08 04:47:00,
2013-03-07 23:49:00,35.4,23.7,28.55,NNE,15,2.0,2.0,62,0.00,,---,0.00,VWS V14.01,2013-03-08 04:49:00,
2013-03-07 23:52:00,35.4,23.7,28.54,NNE,15,2.0,2.0,62,0.00,,---,0.00,VWS V14.01,2013-03-08 04:52:00,
2013-03-07 23:53:00,35.4,23.7,28.54,NNE,15,2.0,2.0,62,0.00,,---,0.00,VWS V14.01,2013-03-08 04:53:00,
2013-03-07 23:54:00,35.2,23.5,28.54,NNE,22,2.0,2.0,62,0.00,,---,0.00,VWS V14.01,2013-03-08 04:54:00,
2013-03-07 23:57:00,35.2,23.5,28.54,NW,310,2.0,2.0,62,0.00,,---,0.00,VWS V14.01,2013-03-08 04:57:00,
2013-03-07 23:58:00,35.2,23.5,28.54,NW,310,2.0,2.0,62,0.00,,---,0.00,VWS V14.01,2013-03-08 04:58:00,